Location: Girdwood
(60.9430°N, 149.1660°W)
Time: 09:11:20
(UTC-09:00)

Amateur Radio Satellites - All Passes

Search period start: 20 January 2017 08:41
Search period end: 21 January 2017 08:41
Location: Girdwood, 60.9430°N, 149.1660°W

Satellite Date Start Highest point End Downlink Frequencies (MHz)
Time Altitude Azimuth
COMPASS 1 20 Jan 08:46:31 08:50:24 33° 95° (E) 08:54:13 437.405
POPSAT HIP 1 20 Jan 08:49:40 08:50:37 11° 37° (NE) 08:51:35 437.405
Cosmos 2491 20 Jan 08:53:18 08:58:57 18° 2° (N) 09:04:37 435.465 / 435.565
ANTELSAT 20 Jan 08:54:30 08:58:25 37° 59° (ENE) 09:02:24 437.575/2403.000
O/OREOS (USA 219) 20 Jan 08:54:40 08:59:08 70° 312° (NW) 09:03:39 437.305
Oscar 11 20 Jan 08:57:56 09:01:04 19° 86° (E) 09:04:12 145.826/435.025
AAUSAT CUBESAT 2 20 Jan 08:57:57 09:01:48 33° 95° (E) 09:05:37 437.432
DUCHIFAT 1 20 Jan 09:00:14 09:01:30 11° 38° (NE) 09:02:46 145.980
NANOSAT C BR1 20 Jan 09:05:06 09:06:53 12° 40° (NE) 09:08:39 145.865
CUTE-I 20 Jan 09:08:47 09:13:44 40° 305° (NW) 09:18:41 437.470
CUBEBUG 2 20 Jan 09:09:25 09:13:33 47° 99° (E) 09:17:47 437.445
HO-68 20 Jan 09:11:17 09:18:31 72° 108° (ESE) 09:25:41 435.675
LilacSat-2 20 Jan 09:12:59 09:15:52 20° 307° (NW) 09:18:45 437.200
BRITE-PL 20 Jan 09:16:21 09:19:06 14° 326° (NW) 09:21:45 437.365/2234.400
GOMX 1 20 Jan 09:20:47 09:23:47 17° 318° (NW) 09:26:39 467.674
AO-7 20 Jan 09:21:09 09:27:44 27° 346° (NNW) 09:34:18 29.400- 29.500
STRAND 1 20 Jan 09:22:38 09:24:46 12° 282° (WNW) 09:26:55 437.568
CUSAT 1 20 Jan 09:25:16 09:29:34 16° 359° (N) 09:34:07 437.405
Cosmos 2499 20 Jan 09:29:46 09:35:20 24° 285° (WNW) 09:40:44 435.465 / 435.565
FUNcube-1 20 Jan 09:33:54 09:37:54 35° 95° (E) 09:41:58 145.935
CUTE 1.7 + AOD 2 20 Jan 09:36:01 09:40:18 62° 292° (WNW) 09:44:33 437.475
UWE-3 20 Jan 09:38:00 09:42:15 56° 102° (ESE) 09:46:35 435.000/436.395/437.385
PRISM 20 Jan 09:39:56 09:43:57 44° 260° (W) 09:47:58 437.425
SO-50 20 Jan 09:44:41 09:49:02 39° 133° (SE) 09:53:20 436.795
CINEMA 3 20 Jan 09:51:26 09:55:12 34° 301° (WNW) 09:59:00 145.822/145.860
Cubesat XI-IV 20 Jan 09:52:17 09:56:36 26° 314° (NW) 10:00:55 437.490
QB50P1 20 Jan 09:55:13 09:58:35 24° 53° (NE) 10:01:58 145.935-145.965
NOAA 18 20 Jan 09:55:37 10:00:33 35° 309° (NW) 10:05:27 137.9125
ZACube-1 20 Jan 09:56:54 10:01:09 55° 101° (E) 10:05:30 437.345
POLYITAN 1 20 Jan 09:59:15 10:02:42 25° 53° (NE) 10:06:10 437.675
RS-15 20 Jan 09:59:59 10:11:15 44° 245° (WSW) 10:22:16 29.354- 29.394
QB50P2 20 Jan 10:00:24 10:03:55 27° 54° (NE) 10:07:27 145.880/145.840
DOVE 4 20 Jan 10:00:31 10:03:01 15° 317° (NW) 10:05:27 437.250
HORYU 2 20 Jan 10:01:26 10:02:35 11° 327° (NNW) 10:03:42 437.375
NOAA 15 20 Jan 10:01:37 10:05:43 23° 317° (NW) 10:09:49 137.62
UNISAT 6 20 Jan 10:02:07 10:06:23 74° 254° (WSW) 10:10:42 437.425
CANX-2 20 Jan 10:05:28 10:09:26 36° 301° (WNW) 10:13:23 2200.000
HUMSAT D 20 Jan 10:08:44 10:11:56 20° 88° (E) 10:15:06 437.325/437.525
JAS-2 20 Jan 10:12:07 10:17:40 66° 63° (ENE) 10:23:56 435.910
DANDE 20 Jan 10:15:18 10:18:04 13° 0° (N) 10:21:06 436.750
TIGRISAT 20 Jan 10:15:35 10:19:48 61° 257° (WSW) 10:24:04 435.000
DELFI C3 20 Jan 10:15:39 10:19:17 31° 95° (E) 10:22:51 145.870
SEEDS 20 Jan 10:16:36 10:20:38 41° 298° (WNW) 10:24:39 437.485
POPSAT HIP 1 20 Jan 10:21:34 10:25:21 34° 58° (ENE) 10:29:09 437.405
COMPASS 1 20 Jan 10:22:02 10:26:07 49° 296° (WNW) 10:30:12 437.405
PCSat 20 Jan 10:23:18 10:28:20 39° 237° (WSW) 10:33:20 145.827
Oscar 19 20 Jan 10:30:58 10:34:07 16° 36° (NE) 10:37:17 437.125/150
ANTELSAT 20 Jan 10:31:02 10:35:08 45° 261° (W) 10:39:18 437.575/2403.000
DUCHIFAT 1 20 Jan 10:32:21 10:36:11 36° 59° (ENE) 10:40:01 145.980
AAUSAT CUBESAT 2 20 Jan 10:33:23 10:37:27 48° 296° (WNW) 10:41:29 437.432
Oscar 11 20 Jan 10:33:27 10:37:51 89° 91° (E) 10:42:14 145.826/435.025
GONETS M04 20 Jan 10:33:38 10:39:21 20° 295° (WNW) 10:45:05
O/OREOS (USA 219) 20 Jan 10:35:25 10:39:17 27° 336° (NNW) 10:43:09 437.305
NANOSAT C BR1 20 Jan 10:37:44 10:41:41 41° 61° (ENE) 10:45:39 145.865
Gurwin Techsat 1B 20 Jan 10:45:19 10:48:14 15° 32° (NNE) 10:51:09 435.225
CUBEBUG 2 20 Jan 10:46:16 10:50:10 36° 300° (WNW) 10:54:09 437.445
CUTE-I 20 Jan 10:49:35 10:52:37 16° 327° (NNW) 10:55:40 437.470
Cosmos 2491 20 Jan 10:52:39 10:59:46 26° 34° (NE) 11:06:53 435.465 / 435.565
HO-68 20 Jan 10:59:17 11:06:02 45° 311° (NW) 11:12:44 435.675
ESTCUBE 1 20 Jan 11:01:14 11:03:25 13° 81° (E) 11:05:34 437.505/2401.250
BUGSAT 1 20 Jan 11:07:12 11:10:50 33° 58° (ENE) 11:14:27 437.445
CUSAT 1 20 Jan 11:09:09 11:14:39 21° 26° (NNE) 11:20:23 437.405
FUNcube-1 20 Jan 11:10:09 11:14:18 48° 296° (WNW) 11:18:32 145.935
AO-7 20 Jan 11:11:44 11:18:17 27° 13° (NNE) 11:24:50 29.400- 29.500
CUTE 1.7 + AOD 2 20 Jan 11:12:41 11:15:27 17° 314° (NW) 11:18:11 437.475
UWE-3 20 Jan 11:14:46 11:18:34 32° 302° (WNW) 11:22:28 435.000/436.395/437.385
ITAMSAT 1 20 Jan 11:16:42 11:17:53 11° 21° (NNE) 11:19:03 435.822/435.867
SO-50 20 Jan 11:24:38 11:29:20 80° 335° (NNW) 11:33:56 436.795
BY70-1 20 Jan 11:29:36 11:32:30 25° 94° (E) 11:35:19 436.1900
QB50P1 20 Jan 11:29:47 11:33:59 79° 252° (WSW) 11:38:14 145.935-145.965
CINEMA 3 20 Jan 11:30:38 11:31:19 10° 323° (NW) 11:31:59 145.822/145.860
Cubesat XI-IV 20 Jan 11:33:23 11:35:07 12° 338° (NNW) 11:36:52 437.490
ZACube-1 20 Jan 11:33:28 11:37:19 32° 302° (WNW) 11:41:15 437.345
POLYITAN 1 20 Jan 11:33:59 11:38:11 73° 255° (WSW) 11:42:24 437.675
QB50P2 20 Jan 11:35:15 11:39:27 69° 256° (WSW) 11:43:41 145.880/145.840
NOAA 18 20 Jan 11:36:56 11:39:56 15° 332° (NNW) 11:42:55 137.9125
UNISAT 6 20 Jan 11:41:25 11:43:55 15° 276° (W) 11:46:26 437.425
NOAA 15 20 Jan 11:42:32 11:43:52 11° 341° (NNW) 11:45:12 137.62
CANX-2 20 Jan 11:42:51 11:44:15 11° 322° (NW) 11:45:39 2200.000
HUMSAT D 20 Jan 11:43:48 11:48:06 84° 287° (WNW) 11:52:24 437.325/437.525
DELFI C3 20 Jan 11:50:22 11:54:16 48° 295° (WNW) 11:58:07 145.870
SEEDS 20 Jan 11:53:33 11:55:24 13° 320° (NW) 11:57:13 437.485
TIGRISAT 20 Jan 11:55:32 11:57:26 13° 279° (W) 11:59:20 435.000
POPSAT HIP 1 20 Jan 11:56:58 12:01:03 50° 259° (W) 12:05:10 437.405
JAS-2 20 Jan 11:58:10 12:03:18 36° 269° (W) 12:09:00 435.910
CUBEBUG 1 20 Jan 11:58:12 12:01:36 22° 89° (E) 12:04:59 437.445
COMPASS 1 20 Jan 11:58:38 12:00:50 14° 317° (NW) 12:03:02 437.405
DANDE 20 Jan 11:59:25 12:03:48 18° 27° (NNE) 12:08:45 436.750
Oscar 19 20 Jan 12:07:28 12:12:23 44° 58° (ENE) 12:17:20 437.125/150
DUCHIFAT 1 20 Jan 12:07:49 12:11:50 45° 260° (W) 12:15:53 145.980
PCSat 20 Jan 12:09:27 12:10:21 10° 259° (WSW) 12:11:15 145.827
AAUSAT CUBESAT 2 20 Jan 12:09:57 12:12:04 14° 317° (NW) 12:14:11 437.432
Oscar 11 20 Jan 12:10:08 12:13:33 23° 309° (NW) 12:16:57 145.826/435.025
NANOSAT C BR1 20 Jan 12:13:33 12:17:28 39° 262° (W) 12:21:27 145.865
RS-15 20 Jan 12:14:06 12:20:07 15° 272° (W) 12:26:04 29.354- 29.394
AISAT 20 Jan 12:14:43 12:18:08 21° 89° (E) 12:21:31 437.250
O/OREOS (USA 219) 20 Jan 12:16:39 12:20:03 20° 1° (N) 12:23:26 437.305
50 SAT 20 Jan 12:20:15 12:22:31 16° 88° (E) 12:24:45 437.505
Gurwin Techsat 1B 20 Jan 12:22:07 12:26:59 38° 55° (NE) 12:31:52 435.225
CUBEBUG 2 20 Jan 12:24:31 12:25:48 11° 322° (NW) 12:27:05 437.445
ESTCUBE 1 20 Jan 12:36:41 12:41:13 59° 102° (ESE) 12:45:42 437.505/2401.250
BUGSAT 1 20 Jan 12:42:11 12:46:07 48° 259° (W) 12:50:03 437.445
HO-68 20 Jan 12:47:01 12:52:18 23° 336° (NNW) 12:57:34 435.675
FUNcube-1 20 Jan 12:47:28 12:49:43 14° 317° (NW) 12:51:59 145.935
VELOX 1 20 Jan 12:47:49 12:51:53 35° 96° (E) 12:55:55 145.980
Cosmos 2491 20 Jan 12:50:11 12:58:52 58° 63° (ENE) 13:07:32 435.465 / 435.565
CUSAT 1 20 Jan 12:51:36 12:58:50 40° 51° (NE) 13:06:12 437.405
ITAMSAT 1 20 Jan 12:51:44 12:55:46 24° 44° (NE) 12:59:50 435.822/435.867
UWE-3 20 Jan 12:53:28 12:53:57 10° 324° (NW) 12:54:26 435.000/436.395/437.385
BY70-1 20 Jan 12:59:41 13:03:01 46° 294° (WNW) 13:06:12 436.1900
AO-7 20 Jan 13:01:37 13:09:19 43° 39° (NE) 13:17:02 29.400- 29.500
SO-50 20 Jan 13:05:38 13:10:12 54° 358° (N) 13:14:41 436.795
QB50P1 20 Jan 13:07:52 13:10:30 16° 275° (W) 13:13:08 145.935-145.965
TISAT 1 20 Jan 13:09:37 13:10:51 11° 81° (E) 13:12:04 437.305
ZACube-1 20 Jan 13:11:42 13:12:32 10° 324° (NW) 13:13:22 437.345
YUBILEINY 20 Jan 13:12:08 13:18:36 24° 69° (ENE) 13:25:05 435.215
POLYITAN 1 20 Jan 13:12:20 13:14:45 15° 276° (W) 13:17:11 437.675
QB50P2 20 Jan 13:13:50 13:16:05 14° 277° (W) 13:18:19 145.880/145.840
SPROUT 20 Jan 13:15:52 13:20:01 46° 100° (E) 13:24:07 437.525
UKube-1 20 Jan 13:18:41 13:22:27 28° 94° (E) 13:26:11 .
DX 1 20 Jan 13:19:39 13:23:41 35° 97° (E) 13:27:42 434.975-435.025
HUMSAT D 20 Jan 13:20:02 13:23:13 21° 310° (NW) 13:26:25 437.325/437.525
DELFI C3 20 Jan 13:26:21 13:28:16 13° 317° (NW) 13:30:10 145.870
CUBEBUG 1 20 Jan 13:34:02 13:38:25 78° 291° (WNW) 13:42:45 437.445
POPSAT HIP 1 20 Jan 13:37:23 13:37:52 10° 281° (W) 13:38:23 437.405
DANDE 20 Jan 13:42:16 13:48:37 36° 52° (NE) 13:55:59 436.750
Oscar 19 20 Jan 13:46:40 13:51:44 50° 260° (W) 13:56:50 437.125/150
AISAT 20 Jan 13:50:44 13:55:10 81° 288° (WNW) 13:59:33 437.250
AIST 1 20 Jan 13:50:54 13:54:11 21° 85° (E) 13:57:28
50 SAT 20 Jan 13:52:38 13:56:15 85° 288° (WNW) 13:59:50 437.505
O/OREOS (USA 219) 20 Jan 13:56:48 14:00:46 29° 27° (NNE) 14:04:44 437.305
Gurwin Techsat 1B 20 Jan 14:01:31 14:06:48 62° 257° (WSW) 14:12:06 435.225
BRITE-PL 20 Jan 14:04:55 14:08:18 17° 38° (NE) 14:11:36 437.365/2234.400
CUTE-I 20 Jan 14:08:13 14:08:37 10° 16° (NNE) 14:09:01 437.470
GOMX 1 20 Jan 14:11:20 14:12:01 10° 30° (NNE) 14:12:43 467.674
ESTCUBE 1 20 Jan 14:13:47 14:17:52 33° 304° (WNW) 14:21:54 437.505/2401.250
Cosmos 2504 20 Jan 14:20:38 14:27:27 29° 77° (ENE) 14:33:56 435.465 / 435.565
VELOX 1 20 Jan 14:24:15 14:28:32 50° 298° (WNW) 14:32:47 145.980
ITAMSAT 1 20 Jan 14:29:26 14:34:37 74° 67° (ENE) 14:39:49 435.822/435.867
BY70-1 20 Jan 14:31:37 14:32:34 11° 315° (NW) 14:33:30 436.1900
HO-68 20 Jan 14:33:22 14:37:50 18° 2° (N) 14:42:19 435.675
CUSAT 1 20 Jan 14:33:43 14:41:36 86° 255° (WSW) 14:49:29 437.405
TISAT 1 20 Jan 14:43:20 14:47:27 54° 102° (ESE) 14:51:33 437.305
HORYU 2 20 Jan 14:44:23 14:46:32 13° 38° (NE) 14:48:41 437.375
SO-50 20 Jan 14:46:30 14:51:07 73° 22° (NNE) 14:55:39 436.795
Cosmos 2491 20 Jan 14:47:23 14:55:52 56° 269° (W) 15:04:22 435.465 / 435.565
Cubesat XI-IV 20 Jan 14:48:44 14:51:06 13° 27° (NNE) 14:53:28 437.490
SPROUT 20 Jan 14:51:59 14:55:55 36° 301° (WNW) 14:59:49 437.525
AO-7 20 Jan 14:53:08 15:01:33 88° 242° (WSW) 15:10:01 29.400- 29.500
ITUPSAT 1 20 Jan 14:53:54 14:57:45 23° 89° (E) 15:01:35 437.325
UKube-1 20 Jan 14:54:32 14:58:49 60° 294° (WNW) 15:03:03 .
NOAA 18 20 Jan 14:54:54 14:57:11 13° 21° (NNE) 14:59:27 137.9125
DX 1 20 Jan 14:55:50 15:00:03 48° 298° (WNW) 15:04:14 434.975-435.025
NOAA 15 20 Jan 14:56:33 14:59:18 14° 29° (NNE) 15:02:03 137.62
YUBILEINY 20 Jan 15:05:09 15:13:51 66° 95° (E) 15:22:36 435.215
CUBEBUG 1 20 Jan 15:10:58 15:14:09 20° 312° (NW) 15:17:19 437.445
MOZHAYETS 4 20 Jan 15:22:27 15:25:34 17° 84° (E) 15:28:39
DANDE 20 Jan 15:25:00 15:32:09 89° 73° (ENE) 15:40:29 436.750
50 SAT 20 Jan 15:26:36 15:29:00 17° 309° (NW) 15:31:23 437.505
AIST 1 20 Jan 15:26:58 15:31:20 77° 285° (WNW) 15:35:43
AISAT 20 Jan 15:27:47 15:31:06 21° 312° (NW) 15:34:24 437.250
BEESAT 20 Jan 15:28:10 15:32:41 39° 97° (E) 15:37:10 436.000
AO-85 20 Jan 15:28:12 15:32:12 32° 131° (SE) 15:35:58 145.980
SWISSCUBE 20 Jan 15:29:48 15:34:24 43° 98° (E) 15:38:59 437.505
Oscar 19 20 Jan 15:30:09 15:32:21 13° 282° (WNW) 15:34:34 437.125/150
O/OREOS (USA 219) 20 Jan 15:36:17 15:40:48 80° 49° (NE) 15:45:20 437.305
BRITE-PL 20 Jan 15:40:22 15:45:42 44° 59° (ENE) 15:50:50 437.365/2234.400
CUTE-I 20 Jan 15:43:06 15:46:56 21° 40° (NE) 15:50:46 437.470
GOMX 1 20 Jan 15:44:27 15:48:45 27° 52° (NE) 15:52:51 467.674
Gurwin Techsat 1B 20 Jan 15:44:38 15:47:52 16° 279° (W) 15:51:06 435.225
ESTCUBE 1 20 Jan 15:52:01 15:53:31 11° 326° (NW) 15:55:00 437.505/2401.250
KKS-1 20 Jan 16:01:14 16:03:29 14° 83° (E) 16:05:42 437.445
VELOX 1 20 Jan 16:01:38 16:04:09 15° 319° (NW) 16:06:40 145.980
CUBESAT XI-V 20 Jan 16:10:07 16:11:15 11° 77° (ENE) 16:12:23 437.345
ITAMSAT 1 20 Jan 16:10:09 16:14:36 29° 268° (W) 16:19:06 435.822/435.867
Cosmos 2504 20 Jan 16:11:26 16:19:56 82° 101° (E) 16:27:52 435.465 / 435.565
CUSAT 1 20 Jan 16:16:07 16:22:51 33° 277° (W) 16:29:35 437.405
HO-68 20 Jan 16:17:55 16:23:27 25° 28° (NNE) 16:28:59 435.675
HORYU 2 20 Jan 16:17:58 16:22:08 42° 60° (ENE) 16:26:19 437.375
TISAT 1 20 Jan 16:19:15 16:22:57 31° 303° (WNW) 16:26:39 437.305
DOVE 4 20 Jan 16:22:48 16:26:34 24° 52° (NE) 16:30:11 437.250
Cubesat XI-IV 20 Jan 16:25:11 16:29:47 31° 50° (NE) 16:34:25 437.490
SO-50 20 Jan 16:27:07 16:31:29 45° 225° (SW) 16:35:46 436.795
SPROUT 20 Jan 16:29:24 16:30:49 12° 322° (NW) 16:32:15 437.525
ITUPSAT 1 20 Jan 16:31:21 16:36:11 84° 291° (WNW) 16:41:01 437.325
UKube-1 20 Jan 16:31:22 16:34:08 17° 316° (NW) 16:36:54 .
NOAA 18 20 Jan 16:31:48 16:36:19 27° 45° (NE) 16:40:50 137.9125
DX 1 20 Jan 16:32:59 16:35:24 15° 319° (NW) 16:37:47 434.975-435.025
NOAA 15 20 Jan 16:33:01 16:37:48 35° 52° (NE) 16:42:36 137.62
M-CUBED/EXP-1 PRIME 20 Jan 16:43:36 16:45:55 17° 96° (E) 16:48:11 437.505
Cosmos 2491 20 Jan 16:45:09 16:50:50 20° 295° (WNW) 16:56:31 435.465 / 435.565
AO-7 20 Jan 16:48:01 16:55:26 34° 269° (W) 17:02:54 29.400- 29.500
STARS 20 Jan 16:53:12 16:56:17 18° 87° (E) 16:59:22 437.465
LilacSat-2 20 Jan 16:55:47 16:59:12 32° 60° (ENE) 17:02:38 437.200
MOZHAYETS 4 20 Jan 16:58:50 17:03:32 77° 106° (ESE) 17:08:11
YUBILEINY 20 Jan 17:02:36 17:11:09 50° 301° (WNW) 17:19:46 435.215
BEESAT 20 Jan 17:05:59 17:10:38 50° 298° (WNW) 17:15:17 436.000
AIST 1 20 Jan 17:06:36 17:09:41 19° 308° (NW) 17:12:48
SWISSCUBE 20 Jan 17:07:42 17:12:18 46° 300° (WNW) 17:16:53 437.505
AO-85 20 Jan 17:07:57 17:12:22 84° 328° (NNW) 17:16:30 145.980
DANDE 20 Jan 17:08:06 17:14:27 34° 273° (W) 17:21:34 436.750
O/OREOS (USA 219) 20 Jan 17:16:08 17:19:49 25° 252° (WSW) 17:23:29 437.305
BRITE-PL 20 Jan 17:18:31 17:24:06 56° 260° (W) 17:29:32 437.365/2234.400
AUBIESAT-1 20 Jan 17:19:36 17:22:39 28° 103° (ESE) 17:25:35 437.475
CUTE-I 20 Jan 17:20:56 17:26:09 60° 63° (ENE) 17:31:24 437.470
GOMX 1 20 Jan 17:21:07 17:26:25 89° 249° (WSW) 17:31:26 467.674
BEESAT 2 20 Jan 17:21:28 17:22:55 12° 115° (ESE) 17:24:23 435.950
CUTE 1.7 + AOD 2 20 Jan 17:28:40 17:31:29 17° 47° (NE) 17:34:18 437.475
KKS-1 20 Jan 17:36:33 17:40:59 63° 104° (ESE) 17:45:22 437.445
CUBESAT XI-V 20 Jan 17:45:16 17:49:52 47° 99° (E) 17:54:24 437.345
CINEMA 3 20 Jan 17:49:08 17:52:53 30° 57° (ENE) 17:56:33 145.822/145.860
HORYU 2 20 Jan 17:54:31 17:58:44 42° 261° (W) 18:02:59 437.375
CANX-2 20 Jan 17:56:54 18:00:29 27° 54° (NE) 18:04:06 2200.000
TISAT 1 20 Jan 17:57:10 17:57:30 10° 325° (NW) 17:57:52 437.305
DOVE 4 20 Jan 17:59:00 18:03:52 90° 331° (NNW) 18:08:27 437.250
CUSAT 1 20 Jan 18:00:59 18:02:36 11° 300° (WNW) 18:04:13 437.405
GONETS M04 20 Jan 18:02:49 18:06:52 14° 57° (ENE) 18:10:55
HO-68 20 Jan 18:03:00 18:09:54 52° 53° (NE) 18:16:50 435.675
Cubesat XI-IV 20 Jan 18:04:10 18:09:30 81° 252° (WSW) 18:14:53 437.490
Cosmos 2504 20 Jan 18:06:23 18:14:09 40° 306° (NW) 18:21:28 435.465 / 435.565
SEEDS 20 Jan 18:07:35 18:10:56 23° 52° (NE) 18:14:18 437.485
SO-50 20 Jan 18:09:02 18:10:57 12° 246° (WSW) 18:12:51 436.795
ITUPSAT 1 20 Jan 18:09:41 18:13:31 24° 312° (NW) 18:17:19 437.325
BEESAT 3 20 Jan 18:10:38 18:14:18 39° 134° (SE) 18:18:02 437.485
NOAA 18 20 Jan 18:10:54 18:16:25 81° 68° (ENE) 18:21:56 137.9125
NOAA 15 20 Jan 18:12:02 18:17:20 70° 254° (WSW) 18:22:42 137.62
COMPASS 1 20 Jan 18:12:43 18:15:46 20° 50° (NE) 18:18:49 437.405
M-CUBED/EXP-1 PRIME 20 Jan 18:17:24 18:20:58 77° 298° (WNW) 18:24:19 437.505
AAUSAT CUBESAT 2 20 Jan 18:23:39 18:26:41 20° 50° (NE) 18:29:44 437.432
Oscar 11 20 Jan 18:28:35 18:30:51 14° 42° (NE) 18:33:10 145.826/435.025
STARS 20 Jan 18:28:53 18:33:18 87° 110° (ESE) 18:37:41 437.465
LilacSat-2 20 Jan 18:29:46 18:33:25 44° 261° (W) 18:37:07 437.200
Cosmos 2499 20 Jan 18:34:21 18:39:47 20° 71° (ENE) 18:44:59 435.465 / 435.565
MOZHAYETS 4 20 Jan 18:36:25 18:40:21 28° 307° (NW) 18:44:16
CUBEBUG 2 20 Jan 18:41:42 18:45:12 27° 56° (NE) 18:48:45 437.445
BEESAT 20 Jan 18:44:33 18:47:33 17° 320° (NW) 18:50:31 436.000
SWISSCUBE 20 Jan 18:46:20 18:49:08 16° 322° (NW) 18:51:57 437.505
AO-85 20 Jan 18:48:57 18:53:07 50° 355° (N) 18:57:03 145.980
DANDE 20 Jan 18:53:39 18:55:22 11° 295° (WNW) 18:57:08 436.750
AUBIESAT-1 20 Jan 18:53:54 18:57:18 44° 305° (NW) 19:00:31 437.475
BEESAT 2 20 Jan 18:56:00 18:59:49 45° 136° (SE) 19:03:42 435.950
BRITE-PL 20 Jan 19:00:27 19:03:43 15° 281° (WNW) 19:06:56 437.365/2234.400
GOMX 1 20 Jan 19:01:02 19:05:08 23° 273° (W) 19:09:06 467.674
CUTE-I 20 Jan 19:01:37 19:06:31 37° 265° (W) 19:11:28 437.470
CUTE 1.7 + AOD 2 20 Jan 19:02:25 19:06:39 65° 69° (ENE) 19:10:56 437.475
YUBILEINY 20 Jan 19:03:41 19:10:34 24° 331° (NNW) 19:17:27 435.215
FUNcube-1 20 Jan 19:04:19 19:07:28 21° 51° (NE) 19:10:40 145.935
UWE-3 20 Jan 19:09:06 19:12:46 31° 57° (ENE) 19:16:29 435.000/436.395/437.385
KKS-1 20 Jan 19:13:26 19:17:20 31° 305° (NW) 19:21:13 437.445
CUBESAT XI-V 20 Jan 19:22:49 19:27:15 41° 300° (WNW) 19:31:39 437.345
CINEMA 3 20 Jan 19:25:37 19:29:53 58° 258° (WSW) 19:34:03 145.822/145.860
ZACube-1 20 Jan 19:26:59 19:30:37 30° 57° (ENE) 19:34:19 437.345
CANX-2 20 Jan 19:31:46 19:36:03 70° 256° (WSW) 19:40:22 2200.000
HUMSAT D 20 Jan 19:36:23 19:38:27 14° 42° (NE) 19:40:32 437.325/437.525
DELFI C3 20 Jan 19:37:37 19:40:16 17° 49° (NE) 19:42:57 145.870
DOVE 4 20 Jan 19:38:34 19:42:10 21° 272° (W) 19:45:39 437.250
STRAND 1 20 Jan 19:39:14 19:43:40 28° 91° (E) 19:48:06 437.568
SEEDS 20 Jan 19:41:57 19:46:12 85° 251° (WSW) 19:50:31 437.485
Cubesat XI-IV 20 Jan 19:46:28 19:50:26 21° 274° (W) 19:54:26 437.490
COMPASS 1 20 Jan 19:46:33 19:50:46 80° 71° (ENE) 19:55:02 437.405
BEESAT 3 20 Jan 19:47:50 19:51:48 72° 336° (NNW) 19:55:48 437.485
HO-68 20 Jan 19:50:30 19:57:39 61° 256° (WSW) 20:04:49 435.675
M-CUBED/EXP-1 PRIME 20 Jan 19:52:31 19:54:58 18° 321° (NW) 19:57:19 437.505
NOAA 18 20 Jan 19:53:03 19:57:42 28° 269° (W) 20:02:22 137.9125
GONETS M04 20 Jan 19:53:14 20:01:14 42° 83° (E) 20:09:16
NOAA 15 20 Jan 19:54:33 19:58:08 18° 276° (W) 20:01:43 137.62
AAUSAT CUBESAT 2 20 Jan 19:57:25 20:01:38 80° 70° (ENE) 20:05:52 437.432
Oscar 11 20 Jan 20:01:58 20:06:08 48° 63° (ENE) 20:10:20 145.826/435.025
Cosmos 2504 20 Jan 20:04:42 20:10:12 19° 335° (NNW) 20:15:28 435.465 / 435.565
STARS 20 Jan 20:05:46 20:09:14 23° 310° (NW) 20:12:42 437.465
MOZHAYETS 4 20 Jan 20:15:50 20:16:13 10° 329° (NNW) 20:16:35
CUBEBUG 2 20 Jan 20:17:29 20:21:37 63° 257° (WSW) 20:25:47 437.445
Cosmos 2499 20 Jan 20:23:34 20:31:35 62° 94° (E) 20:39:00 435.465 / 435.565
AUBIESAT-1 20 Jan 20:29:20 20:30:59 13° 327° (NNW) 20:32:36 437.475
AO-85 20 Jan 20:29:51 20:33:59 62° 19° (NNE) 20:37:54 145.980
BEESAT 2 20 Jan 20:33:34 20:37:34 66° 338° (NNW) 20:41:37 435.950
ESTCUBE 1 20 Jan 20:36:02 20:38:05 13° 37° (NE) 20:40:07 437.505/2401.250
FUNcube-1 20 Jan 20:39:05 20:43:15 90° 293° (WNW) 20:47:30 145.935
CUTE 1.7 + AOD 2 20 Jan 20:39:18 20:42:53 25° 269° (W) 20:46:30 437.475
UWE-3 20 Jan 20:45:02 20:49:06 54° 259° (W) 20:53:14 435.000/436.395/437.385
KKS-1 20 Jan 20:51:43 20:52:44 11° 327° (NNW) 20:53:44 437.445
AIST 2 20 Jan 20:58:04 21:01:39 28° 128° (SE) 21:05:17 435.215
CUBESAT XI-V 20 Jan 21:01:13 21:03:35 14° 322° (NW) 21:05:57 437.345
ZACube-1 20 Jan 21:02:39 21:06:45 56° 258° (WSW) 21:10:56 437.345
YUBILEINY 20 Jan 21:05:43 21:11:31 18° 4° (N) 21:17:18 435.215
CINEMA 3 20 Jan 21:06:23 21:07:58 12° 279° (W) 21:09:33 145.822/145.860
HUMSAT D 20 Jan 21:09:13 21:13:12 47° 64° (ENE) 21:17:16 437.325/437.525
CANX-2 20 Jan 21:10:18 21:12:44 15° 277° (W) 21:15:10 2200.000
DELFI C3 20 Jan 21:10:29 21:14:30 71° 69° (ENE) 21:18:32 145.870
PRISM 20 Jan 21:11:51 21:14:12 15° 85° (E) 21:16:33 437.425
STRAND 1 20 Jan 21:18:13 21:23:22 74° 293° (WNW) 21:28:31 437.568
SEEDS 20 Jan 21:19:42 21:22:34 17° 274° (W) 21:25:28 437.485
COMPASS 1 20 Jan 21:23:39 21:26:51 21° 272° (W) 21:30:05 437.405
BEESAT 3 20 Jan 21:25:58 21:29:50 47° 359° (N) 21:33:44 437.485
CUBEBUG 1 20 Jan 21:29:18 21:32:09 17° 45° (NE) 21:35:00 437.445
AAUSAT CUBESAT 2 20 Jan 21:34:28 21:37:38 20° 272° (W) 21:40:49 437.432
Oscar 11 20 Jan 21:38:26 21:42:26 35° 264° (W) 21:46:28 145.826/435.025
HO-68 20 Jan 21:42:00 21:46:57 19° 280° (W) 21:51:56 435.675
UNISAT 6 20 Jan 21:44:24 21:46:32 13° 82° (E) 21:48:40 437.425
AISAT 20 Jan 21:46:55 21:49:54 18° 45° (NE) 21:52:52 437.250
GONETS M04 20 Jan 21:48:54 21:57:38 74° 289° (WNW) 22:06:30
BY70-1 20 Jan 21:53:18 21:56:17 34° 62° (ENE) 21:59:23 436.1900
TIGRISAT 20 Jan 21:57:13 21:59:53 15° 84° (E) 22:02:33 435.000
CUBEBUG 2 20 Jan 21:57:18 21:59:09 13° 278° (W) 22:01:00 437.445
Cosmos 2504 20 Jan 22:03:07 22:07:28 15° 7° (N) 22:11:41 435.465 / 435.565
ESTCUBE 1 20 Jan 22:09:37 22:13:50 38° 59° (ENE) 22:18:05 437.505/2401.250
AO-85 20 Jan 22:10:27 22:14:22 49° 222° (SW) 22:18:09 145.980
BEESAT 2 20 Jan 22:11:53 22:15:48 47° 1° (N) 22:19:45 435.950
ANTELSAT 20 Jan 22:12:12 22:15:32 20° 88° (E) 22:18:53 437.575/2403.000
Cosmos 2499 20 Jan 22:17:15 22:25:04 49° 299° (WNW) 22:32:21 435.465 / 435.565
FUNcube-1 20 Jan 22:17:17 22:20:09 18° 274° (W) 22:23:04 145.935
VELOX 1 20 Jan 22:19:19 22:22:58 25° 52° (NE) 22:26:37 145.980
UWE-3 20 Jan 22:25:33 22:26:36 11° 281° (W) 22:27:39 435.000/436.395/437.385
RS-15 20 Jan 22:29:18 22:36:06 17° 90° (E) 22:42:58 29.354- 29.394
AIST 2 20 Jan 22:35:35 22:39:47 90° 181° (S) 22:44:03 435.215
TISAT 1 20 Jan 22:38:23 22:38:41 10° 35° (NE) 22:38:57 437.305
ZACube-1 20 Jan 22:42:38 22:44:02 11° 280° (W) 22:45:26 437.345
SPROUT 20 Jan 22:43:53 22:47:30 28° 55° (NE) 22:51:07 437.525
HUMSAT D 20 Jan 22:45:12 22:48:59 33° 265° (W) 22:52:51 437.325/437.525
PRISM 20 Jan 22:46:06 22:50:16 74° 105° (ESE) 22:54:22 437.425
DELFI C3 20 Jan 22:46:35 22:49:45 22° 270° (W) 22:52:55 145.870
UKube-1 20 Jan 22:48:02 22:51:20 21° 49° (NE) 22:54:37 .
DX 1 20 Jan 22:49:37 22:53:14 26° 52° (NE) 22:56:51 434.975-435.025
JAS-2 20 Jan 22:53:56 22:59:52 29° 87° (E) 23:06:15 435.910
STRAND 1 20 Jan 22:57:56 23:01:56 23° 315° (NW) 23:05:54 437.568
CUBEBUG 1 20 Jan 23:03:23 23:07:44 61° 66° (ENE) 23:12:04 437.445
BEESAT 3 20 Jan 23:03:54 23:07:54 66° 22° (NNE) 23:11:54 437.485
50 SAT 20 Jan 23:03:54 23:07:08 32° 60° (ENE) 23:10:23 437.505
YUBILEINY 20 Jan 23:04:54 23:12:14 28° 36° (NE) 23:19:31 435.215
POLYITAN 1 20 Jan 23:10:36 23:11:35 11° 80° (E) 23:12:34 437.675
QB50P2 20 Jan 23:11:30 23:12:56 11° 81° (E) 23:14:22 145.880/145.840
UNISAT 6 20 Jan 23:19:47 23:24:09 61° 103° (ESE) 23:28:36 437.425
AISAT 20 Jan 23:21:17 23:25:41 63° 66° (ENE) 23:30:05 437.250
BY70-1 20 Jan 23:23:38 23:26:35 33° 263° (W) 23:29:42 436.1900
POPSAT HIP 1 20 Jan 23:32:03 23:34:35 15° 85° (E) 23:37:07 437.405
TIGRISAT 20 Jan 23:32:58 23:37:22 72° 106° (ESE) 23:41:49 435.000
BEESAT 20 Jan 23:33:15 23:35:08 12° 32° (NNE) 23:37:02 436.000
SWISSCUBE 20 Jan 23:34:36 23:36:45 13° 33° (NNE) 23:38:54 437.505
DUCHIFAT 1 20 Jan 23:42:01 23:44:42 16° 86° (E) 23:47:23 145.980
AIST 1 20 Jan 23:46:06 23:49:22 20° 53° (NE) 23:52:36
ESTCUBE 1 20 Jan 23:46:12 23:50:37 49° 260° (W) 23:55:04 437.505/2401.250
NANOSAT C BR1 20 Jan 23:47:40 23:50:43 19° 88° (E) 23:53:45 145.865
ANTELSAT 20 Jan 23:48:25 23:52:49 85° 290° (WNW) 23:57:19 437.575/2403.000
GONETS M04 20 Jan 23:48:33 23:56:09 32° 317° (NW) 00:03:51
BEESAT 2 20 Jan 23:49:57 23:54:01 73° 25° (NNE) 23:58:05 435.950
AO-85 20 Jan 23:52:12 23:53:53 12° 244° (WSW) 23:55:34 145.980
VELOX 1 20 Jan 23:54:36 23:59:04 80° 253° (WSW) 00:03:33 145.980
Cosmos 2504 20 Jan 23:58:09 00:04:21 25° 39° (NE) 00:10:15 435.465 / 435.565
TISAT 1 21 Jan 00:09:31 00:13:13 31° 57° (ENE) 00:16:56 437.305
AIST 2 21 Jan 00:14:28 00:18:35 51° 353° (N) 00:22:45 435.215
Cosmos 2491 21 Jan 00:14:29 00:18:27 14° 57° (ENE) 00:22:26 435.465 / 435.565
BUGSAT 1 21 Jan 00:14:33 00:16:36 13° 84° (E) 00:18:39 437.445
Cosmos 2499 21 Jan 00:14:34 00:20:19 21° 326° (NNW) 00:25:48 435.465 / 435.565
SPROUT 21 Jan 00:18:56 00:23:11 66° 256° (WSW) 00:27:26 437.525
PRISM 21 Jan 00:21:50 00:25:14 25° 307° (NW) 00:28:37 437.425
UKube-1 21 Jan 00:22:32 00:26:52 84° 69° (ENE) 00:31:14 .
DX 1 21 Jan 00:24:42 00:29:05 77° 253° (WSW) 00:33:29 434.975-435.025
M-CUBED/EXP-1 PRIME 21 Jan 00:33:05 00:34:07 11° 29° (NNE) 00:35:07 437.505
RS-15 21 Jan 00:34:01 00:45:12 48° 118° (ESE) 00:56:40 29.354- 29.394
ITUPSAT 1 21 Jan 00:34:08 00:37:48 22° 46° (NE) 00:41:28 437.325
50 SAT 21 Jan 00:36:55 00:40:19 40° 261° (W) 00:43:45 437.505
STRAND 1 21 Jan 00:38:46 00:39:32 10° 338° (NNW) 00:40:18 437.568
JAS-2 21 Jan 00:38:52 00:45:43 86° 107° (ESE) 00:53:20 435.910
QB50P1 21 Jan 00:39:54 00:44:00 47° 100° (E) 00:48:06 145.935-145.965
CUBEBUG 1 21 Jan 00:40:31 00:44:21 28° 267° (W) 00:48:11 437.445
BEESAT 3 21 Jan 00:41:38 00:45:28 45° 224° (SW) 00:49:18 437.485
POLYITAN 1 21 Jan 00:44:15 00:48:24 51° 101° (E) 00:52:33 437.675
QB50P2 21 Jan 00:45:31 00:49:42 55° 102° (ESE) 00:53:52 145.880/145.840
UNISAT 6 21 Jan 00:56:51 01:00:42 31° 303° (WNW) 01:04:36 437.425
AISAT 21 Jan 00:58:41 01:02:30 28° 267° (W) 01:06:21 437.250
MOZHAYETS 4 21 Jan 00:59:08 01:01:49 15° 41° (NE) 01:04:29
YUBILEINY 21 Jan 01:02:22 01:11:10 62° 65° (ENE) 01:19:53 435.215
POPSAT HIP 1 21 Jan 01:06:53 01:11:07 75° 106° (ESE) 01:15:21 437.405
BEESAT 21 Jan 01:07:29 01:11:43 33° 54° (NE) 01:15:59 436.000
AUBIESAT-1 21 Jan 01:07:56 01:09:55 14° 35° (NE) 01:11:51 437.475
SWISSCUBE 21 Jan 01:09:04 01:13:24 36° 56° (NE) 01:17:45 437.505
TIGRISAT 21 Jan 01:10:06 01:13:46 27° 306° (NW) 01:17:29 435.000
PCSat 21 Jan 01:15:20 01:19:30 23° 114° (ESE) 01:23:42 145.827
DUCHIFAT 1 21 Jan 01:16:52 01:21:05 81° 107° (ESE) 01:25:18 145.980
NANOSAT C BR1 21 Jan 01:22:48 01:27:02 86° 285° (WNW) 01:31:15 145.865
AIST 1 21 Jan 01:23:17 01:27:37 89° 76° (ENE) 01:31:53
ANTELSAT 21 Jan 01:25:43 01:29:04 22° 310° (NW) 01:32:27 437.575/2403.000
ESTCUBE 1 21 Jan 01:27:25 01:28:35 11° 282° (WNW) 01:29:44 437.505/2401.250
BEESAT 2 21 Jan 01:27:52 01:31:40 39° 226° (SW) 01:35:27 435.950
VELOX 1 21 Jan 01:33:18 01:36:16 17° 274° (W) 01:39:15 145.980
KKS-1 21 Jan 01:34:33 01:36:43 14° 38° (NE) 01:38:52 437.445
ISS 21 Jan 01:36:26 01:38:31 16° 173° (S) 01:40:35 145.825
TISAT 1 21 Jan 01:44:37 01:48:43 54° 258° (WSW) 01:52:51 437.305
Oscar 19 21 Jan 01:47:38 01:52:11 30° 92° (E) 01:56:41 437.125/150
CUBESAT XI-V 21 Jan 01:48:04 01:49:45 12° 34° (NNE) 01:51:25 437.345
BUGSAT 1 21 Jan 01:48:43 01:52:45 70° 104° (ESE) 01:56:47 437.445
GONETS M04 21 Jan 01:50:44 01:56:37 19° 349° (N) 02:02:31
Cosmos 2504 21 Jan 01:51:55 01:59:33 63° 67° (ENE) 02:06:44 435.465 / 435.565
AIST 2 21 Jan 01:53:23 01:57:34 58° 16° (NNE) 02:01:47 435.215
SPROUT 21 Jan 01:57:45 01:59:57 14° 277° (W) 02:02:10 437.525
UKube-1 21 Jan 02:00:14 02:03:29 20° 271° (W) 02:06:45 .
DX 1 21 Jan 02:03:13 02:06:01 16° 274° (W) 02:08:50 434.975-435.025
M-CUBED/EXP-1 PRIME 21 Jan 02:04:07 02:07:42 30° 49° (NE) 02:11:04 437.505
Cosmos 2491 21 Jan 02:04:54 02:12:51 42° 83° (E) 02:20:51 435.465 / 435.565
Gurwin Techsat 1B 21 Jan 02:07:17 02:11:47 27° 90° (E) 02:16:15 435.225
CUSAT 1 21 Jan 02:07:38 02:11:19 16° 68° (ENE) 02:15:22 437.405
ITUPSAT 1 21 Jan 02:10:16 02:15:03 77° 68° (ENE) 02:19:52 437.325
Cosmos 2499 21 Jan 02:13:17 02:17:04 14° 358° (N) 02:20:45 435.465 / 435.565
QB50P1 21 Jan 02:15:52 02:19:44 35° 301° (WNW) 02:23:34 145.935-145.965
POLYITAN 1 21 Jan 02:20:18 02:24:05 33° 302° (WNW) 02:27:55 437.675
BEESAT 3 21 Jan 02:20:48 02:22:14 12° 245° (WSW) 02:23:38 437.485
QB50P2 21 Jan 02:21:37 02:25:22 31° 303° (WNW) 02:29:07 145.880/145.840
JAS-2 21 Jan 02:24:20 02:30:22 37° 310° (NW) 02:37:01 435.910
STARS 21 Jan 02:25:00 02:27:41 16° 43° (NE) 02:30:21 437.465
ITAMSAT 1 21 Jan 02:33:15 02:35:32 13° 79° (ENE) 02:37:48 435.822/435.867
MOZHAYETS 4 21 Jan 02:33:39 02:38:05 49° 63° (ENE) 02:42:33
UNISAT 6 21 Jan 02:35:40 02:36:16 10° 326° (NW) 02:36:52 437.425
AUBIESAT-1 21 Jan 02:39:49 02:43:39 43° 55° (NE) 02:47:15 437.475
POPSAT HIP 1 21 Jan 02:43:07 02:46:34 25° 307° (NW) 02:50:01 437.405
AO-7 21 Jan 02:43:53 02:49:07 17° 76° (ENE) 02:54:18 29.400- 29.500
BEESAT 21 Jan 02:44:34 02:49:18 64° 256° (WSW) 02:54:05 436.000
RS-15 21 Jan 02:44:36 02:56:50 87° 147° (SSE) 03:09:19 29.354- 29.394
SWISSCUBE 21 Jan 02:46:21 02:51:04 58° 257° (WSW) 02:55:49 437.505
DUCHIFAT 1 21 Jan 02:53:03 02:56:24 23° 308° (NW) 02:59:45 145.980
PCSat 21 Jan 02:56:47 03:02:11 72° 136° (SE) 03:07:38 145.827
NANOSAT C BR1 21 Jan 02:59:07 03:02:17 21° 310° (NW) 03:05:26 145.865
YUBILEINY 21 Jan 02:59:32 03:07:59 53° 271° (W) 03:16:23 435.215
AIST 1 21 Jan 03:01:44 03:04:39 18° 278° (W) 03:07:32
DANDE 21 Jan 03:06:54 03:08:28 11° 65° (ENE) 03:10:07 436.750
KKS-1 21 Jan 03:08:08 03:12:19 42° 60° (ENE) 03:16:31 437.445
ISS 21 Jan 03:12:17 03:14:09 14° 193° (SSW) 03:16:00 145.825
CUBESAT XI-V 21 Jan 03:21:43 03:25:56 33° 56° (NE) 03:30:09 437.345
TISAT 1 21 Jan 03:24:05 03:25:19 11° 279° (W) 03:26:35 437.305
BUGSAT 1 21 Jan 03:24:32 03:27:51 25° 306° (NW) 03:31:09 437.445
Oscar 19 21 Jan 03:26:47 03:31:59 71° 294° (WNW) 03:37:09 437.125/150
AIST 2 21 Jan 03:31:59 03:36:11 63° 219° (SW) 03:40:24 435.215
M-CUBED/EXP-1 PRIME 21 Jan 03:37:54 03:42:03 61° 248° (WSW) 03:45:53 437.505
Cosmos 2504 21 Jan 03:45:40 03:52:46 45° 273° (W) 03:59:31 435.465 / 435.565
CUSAT 1 21 Jan 03:45:43 03:51:29 51° 93° (E) 03:58:36 437.405
Gurwin Techsat 1B 21 Jan 03:46:59 03:52:21 81° 292° (WNW) 03:57:41 435.225
ITUPSAT 1 21 Jan 03:49:29 03:53:25 25° 269° (W) 03:57:24 437.325
GONETS M04 21 Jan 03:51:14 03:57:42 22° 23° (NNE) 04:04:10
STRAND 1 21 Jan 03:51:50 03:53:45 12° 27° (NNE) 03:55:40 437.568
QB50P1 21 Jan 03:53:15 03:54:28 11° 323° (NW) 03:55:42 145.935-145.965
POLYITAN 1 21 Jan 03:57:55 03:58:50 11° 324° (NW) 03:59:44 437.675
STARS 21 Jan 03:58:59 04:03:16 55° 64° (ENE) 04:07:33 437.465
QB50P2 21 Jan 03:59:36 04:00:03 10° 325° (NW) 04:00:31 145.880/145.840
Cosmos 2491 21 Jan 04:00:33 04:09:16 74° 289° (WNW) 04:18:05 435.465 / 435.565
Cosmos 2499 21 Jan 04:08:40 04:13:54 20° 31° (NNE) 04:18:57 435.465 / 435.565
JAS-2 21 Jan 04:09:44 04:13:55 18° 333° (NNW) 04:18:22 435.910
MOZHAYETS 4 21 Jan 04:11:07 04:15:25 38° 264° (W) 04:19:45
ITAMSAT 1 21 Jan 04:11:11 04:16:17 51° 101° (E) 04:21:22 435.822/435.867
AUBIESAT-1 21 Jan 04:14:21 04:18:10 37° 253° (WSW) 04:21:45 437.475
BEESAT 21 Jan 04:25:20 04:28:04 15° 277° (W) 04:30:48 436.000
SWISSCUBE 21 Jan 04:27:33 04:29:55 14° 279° (W) 04:32:18 437.505
AO-7 21 Jan 04:35:54 04:44:06 52° 102° (ESE) 04:52:13 29.400- 29.500
PCSat 21 Jan 04:40:33 04:45:53 54° 340° (NNW) 04:51:15 145.827
KKS-1 21 Jan 04:44:41 04:48:56 43° 261° (W) 04:53:12 437.445
DANDE 21 Jan 04:44:50 04:49:16 45° 92° (E) 04:55:09 436.750
YUBILEINY 21 Jan 04:57:21 05:02:45 18° 297° (WNW) 05:08:09 435.215
RS-15 21 Jan 04:57:50 05:10:14 75° 359° (N) 05:22:38 29.354- 29.394
CUBESAT XI-V 21 Jan 04:58:25 05:03:07 62° 257° (WSW) 05:07:50 437.345
Oscar 19 21 Jan 05:06:39 05:10:39 23° 316° (NW) 05:14:37 437.125/150
AIST 2 21 Jan 05:11:06 05:14:01 18° 240° (WSW) 05:16:56 435.215
BRITE-PL 21 Jan 05:13:23 05:17:49 28° 89° (E) 05:21:55 437.365/2234.400
GOMX 1 21 Jan 05:14:02 05:16:24 14° 80° (E) 05:18:42 467.674
M-CUBED/EXP-1 PRIME 21 Jan 05:15:25 05:17:13 12° 267° (W) 05:18:58 437.505
STRAND 1 21 Jan 05:27:11 05:31:33 29° 50° (NE) 05:35:56 437.568
Gurwin Techsat 1B 21 Jan 05:27:25 05:31:44 26° 314° (NW) 05:36:03 435.225
CUSAT 1 21 Jan 05:27:27 05:33:29 55° 300° (WNW) 05:40:54 437.405
CUTE-I 21 Jan 05:29:28 05:30:54 11° 76° (ENE) 05:32:22 437.470
HORYU 2 21 Jan 05:35:10 05:38:28 20° 88° (E) 05:41:45 437.375
STARS 21 Jan 05:35:58 05:39:53 31° 265° (W) 05:43:49 437.465
Cosmos 2504 21 Jan 05:40:45 05:44:05 14° 299° (WNW) 05:47:20 435.465 / 435.565
DOVE 4 21 Jan 05:49:11 05:50:44 12° 80° (E) 05:52:14 437.250
GONETS M04 21 Jan 05:49:11 05:57:31 42° 53° (NE) 06:05:49
ITAMSAT 1 21 Jan 05:50:50 05:55:46 44° 303° (WNW) 06:00:42 435.822/435.867
LilacSat-2 21 Jan 05:53:52 05:55:39 13° 83° (E) 05:57:27 437.200
JAS-2 21 Jan 05:54:01 05:56:43 13° 359° (N) 05:59:31 435.910
Cosmos 2491 21 Jan 06:00:14 06:07:48 32° 317° (NW) 06:15:27 435.465 / 435.565
Cosmos 2499 21 Jan 06:02:13 06:09:17 46° 60° (ENE) 06:16:04 435.465 / 435.565
O/OREOS (USA 219) 21 Jan 06:02:25 06:03:29 11° 96° (E) 06:04:33 437.305
Cubesat XI-IV 21 Jan 06:11:19 06:15:16 20° 85° (E) 06:19:12 437.490
NOAA 15 21 Jan 06:17:00 06:21:11 23° 88° (E) 06:25:20 137.62
NOAA 18 21 Jan 06:23:20 06:26:38 16° 82° (E) 06:29:54 137.9125
PCSat 21 Jan 06:24:54 06:30:09 45° 5° (N) 06:35:23 145.827
DANDE 21 Jan 06:27:21 06:32:01 48° 302° (WNW) 06:38:15 436.750
AO-7 21 Jan 06:28:57 06:37:14 65° 307° (NW) 06:45:28 29.400- 29.500
PRISM 21 Jan 06:37:48 06:39:31 12° 39° (NE) 06:41:13 437.425
CUBESAT XI-V 21 Jan 06:38:54 06:41:29 14° 279° (W) 06:44:04 437.345
Oscar 19 21 Jan 06:47:32 06:48:21 10° 339° (NNW) 06:49:11 437.125/150
GOMX 1 21 Jan 06:50:55 06:55:34 65° 103° (ESE) 06:59:52 467.674
BRITE-PL 21 Jan 06:51:40 06:56:50 70° 292° (WNW) 07:01:34 437.365/2234.400
STRAND 1 21 Jan 07:05:14 07:10:21 82° 252° (WSW) 07:15:31 437.568
HO-68 21 Jan 07:07:13 07:12:11 19° 80° (E) 07:17:06 435.675
CUTE-I 21 Jan 07:07:19 07:12:25 44° 98° (E) 07:17:32 437.470
CANX-2 21 Jan 07:07:48 07:09:45 13° 81° (E) 07:11:42 2200.000
Gurwin Techsat 1B 21 Jan 07:08:26 07:10:08 12° 337° (NNW) 07:11:51 435.225
CINEMA 3 21 Jan 07:10:11 07:12:55 17° 86° (E) 07:15:40 145.822/145.860
HORYU 2 21 Jan 07:11:09 07:15:38 89° 301° (WNW) 07:20:07 437.375
RS-15 21 Jan 07:11:14 07:23:43 89° 28° (NNE) 07:35:59 29.354- 29.394
CUSAT 1 21 Jan 07:11:54 07:17:14 25° 327° (NNW) 07:23:18 437.405
UNISAT 6 21 Jan 07:19:07 07:20:34 12° 37° (NE) 07:22:01 437.425
DOVE 4 21 Jan 07:25:13 07:29:29 58° 102° (ESE) 07:33:36 437.250
LilacSat-2 21 Jan 07:26:49 07:30:42 69° 104° (ESE) 07:34:34 437.200
ITAMSAT 1 21 Jan 07:31:02 07:34:11 16° 325° (NW) 07:37:21 435.822/435.867
TIGRISAT 21 Jan 07:31:35 07:33:29 13° 39° (NE) 07:35:23 435.000
JAS-2 21 Jan 07:35:43 07:39:29 17° 25° (NNE) 07:43:30 435.910
O/OREOS (USA 219) 21 Jan 07:37:34 07:41:52 48° 118° (ESE) 07:46:12 437.305
ANTELSAT 21 Jan 07:46:13 07:48:45 16° 44° (NE) 07:51:19 437.575/2403.000
GONETS M04 21 Jan 07:46:24 07:55:15 80° 260° (W) 08:04:06
Cubesat XI-IV 21 Jan 07:50:50 07:56:14 79° 108° (ESE) 08:01:35 437.490
Cosmos 2499 21 Jan 07:55:36 08:02:46 60° 266° (W) 08:09:40 435.465 / 435.565
NOAA 15 21 Jan 07:56:21 08:01:44 87° 110° (ESE) 08:07:05 137.62
CUBEBUG 2 21 Jan 07:58:25 08:00:55 15° 84° (E) 08:03:28 437.445
Cosmos 2491 21 Jan 08:02:27 08:08:15 19° 349° (N) 08:14:07 435.465 / 435.565
NOAA 18 21 Jan 08:03:01 08:08:28 61° 104° (ESE) 08:13:52 137.9125
PCSat 21 Jan 08:08:47 08:14:15 69° 30° (NNE) 08:19:41 145.827
PRISM 21 Jan 08:09:58 08:13:53 40° 60° (ENE) 08:17:48 437.425
DANDE 21 Jan 08:12:40 08:16:37 20° 330° (NNW) 08:21:17 436.750
CUTE 1.7 + AOD 2 21 Jan 08:12:53 08:16:48 33° 94° (E) 08:20:43 437.475
FUNcube-1 21 Jan 08:18:52 08:19:35 10° 79° (ENE) 08:20:17 145.935
AO-7 21 Jan 08:21:44 08:28:53 33° 332° (NNW) 08:36:02 29.400- 29.500
UWE-3 21 Jan 08:24:28 08:27:22 17° 86° (E) 08:30:18 435.000/436.395/437.385
GOMX 1 21 Jan 08:29:21 08:33:24 30° 306° (NW) 08:37:13 467.674
BRITE-PL 21 Jan 08:30:41 08:34:32 22° 316° (NW) 08:38:12 437.365/2234.400
SO-50 21 Jan 08:31:10 08:34:28 19° 120° (ESE) 08:37:45 436.795
